sat.trackr.live / text

‹ back to catalog

STARLINK-5900

NORAD 55948 · 2023-037AL

PAYLOAD ACTIVE UNKNOWN

§ Identity

Operator
Country
US
Launch date
2023-03-17
Launch site
AFWTR
Launch vehicle
Mass (kg)
RCS (m²)

Purposes: comms

External: N2YO · Heavens-Above · Gunter

§ Orbital elements

Epoch: 2026-05-25T03:38:26.713248Z

Period
96.11 min
Inclination
70.0001°
Eccentricity
0.0002885
Mean motion
14.98331073 rev/d
Perigee alt
570.0 km
Apogee alt
574.1 km
Semi-major
6,950.2 km
B*
7.0198e-5
RAAN
71.7827°
Arg perigee
269.1456°
Mean anomaly
90.9372°
Rev number
17,592

§ Raw data

STARLINK-59001 55948U 23037AL  26145.15169807  .00000745  00000+0  70198-4 0  99952 55948  70.0001  71.7827 0002885 269.1456  90.9372 14.98331073175922

JSON: /api/v1/satellites/55948 · /tle

For live sub-satellite position, see the globe view (requires WebGL).

§ Visibility from observer

Set your observer location to see the next 7 days of passes ≥ 10°. The values pass through the URL so the page stays shareable.

No JS? Fill the form by hand. The geolocation button needs JavaScript.